Probability
0 0 0 0 0 0 0 0 0 0 0 0 0 0 0 0 0 0 0 0 0 0 0 0 0 0 0 0 0 0 0 0 0 0 0 0 0 0 0 0 0 0 0 0
0 0 0 0 0 0 0 0 0 0 0 0 0 0 0 0 0 0 0 0 0 0 0 0 0 0 0 0 0 0 0 0 0 0 0 0 0 0 0 0 0 0 0 0
0 0 0 0 0 0 0 0 0 0 0 0 0 0 0 0 0 0 0 0 0 0 0 0 0 0 0 0 0 0 0 0 0 0 0 0 0 0 0 0 0 0 0 0
0 0 0 0 0 0 0 0 0 0 0 0 0 0 0 0 0 0 0 0 0 0 0 0 0 0 0 0 0 0 0 0 0 0 0 0 0 0 0 0 0 0 0 0
0 0 0 0 0 0 0 0 0 0 0 0 0 0 0 0 0 0 0 0 0 0 0 0 0 0 0 0 0 0 0 0 0 0 0 0 0 0 0 0 0 0 0 0
0 0 0 0 0 0 0 0 0 0 0 0 0 0 0 0 0 0 0 0 0 0 0 0 0 0 0 0 0 0 0 0 0 0 0 0 0 0 0 0 0 0 0 0
0 0 0 0 0 0 0 0 0 0 0 0 0 0 0 0 0 0 0 0 0 0 0 0 0 0 0 0 0 0 0 0 0 0 0 0 0 0 0 0 0 0 0 0
0 0 0 0 0 0 0 0 0 0 0 0 0 0 0 0 0 0 0 0 0 0 0 0 0 0 0 0 0 0 0 0 0 0 0 0 0 0 0 0 0 0 0 0
0 0 0 0 0 0 0 0 0 0 0 0 0 0 0 0 0 0 0 0 0 0 0 0 0 0 0 0 0 0 0 0 0 0 0 0 0 0 0 0 0 0 0 0
0 0 0 0 0 0 0 0 0 0 0 0 0 0 0 0 0 0 0 0 0 0 0 0 0 0 0 0 0 0 0 0 0 0 0 0 0 0 0 0 0 0 0 0
0 0 0 0 0 0 0 0 0 0 0 0 0 0 0 0 0 0 0 0 0 0 0 0 0 0 0 0 0 0 0 0 0 0 0 0 0 0 0 0 0 0 0 0
0 0 0 0 0 0 0 0 0 0 0 0 0 0 0 0 0 0 0 0 0 0 0 0 0 0 0 0 0 0 0 0 0 0 0 0 0 0 0 0 0 0 0 0
0 0 0 0 0 0 0 0 0 0 0 0 0 0 0 0 0 0 0 0 0 0 0 0 0 0 0 0 0 0 0 0 0 0 0 0 0 0 0 0 0 0 0 0
0 0 0 0 0 0 0 0 0 0 0 0 0 0 0 0 0 0 0 0 0 0 0 0 0 0 0 0 0 0 0 0 0 0 0 0 0 0 0 0 0 0 0 0
0 0 0 0 0 0 0 0 0 0 0 0 0 0 0 0 0 0 0 0 0 0 0 0 0 0 0 0 0 0 0 0 0 0 0 0 0 0 0 0 0 0 0 0
0 0 0 0 0 0 0 0 0 0 0 0 0 0 0 0 0 0 0 0 0 0 0 0 0 0 0 0 0 0 0 0 0 0 0 0 0 0 0 0 0 0 0 0
0 0 0 0 0 0 0 0 0 0 0 0 0 0 0 0 0 0 0 0 0 0 0 0 0 0 0 0 0 0 0 0 0 0 0 0 0 0 0 0 0 0 0 0
0 0 0 0 0 0 0 0 0 0 0 0 0 0 0 0 0 0 0 0 0 0 0 0 0 0 0 0 0 0 0 0 0 0 0 0 0 0 0 0 0 0 0 0
0 0 0 0 0 0 0 0 0 0 0 0 0 0 0 0 0 0 0 0 0 0 0 0 0 0 0 0 0 0 0 0 0 0 0 0 0 0 0 0 0 0 0 0
0 0 0 0 0 0 0 0 0 0 0 0 0 0 0 0 0 0 0 0 0 0 0 0 0 0 0 0 0 0 0 0 0 0 0 0 0 0 0 0 0 0 0 0
0 0 0 0 0 0 0 0 0 0 0 0 0 0 0 0 0 0 0 0 0 0 0 0 0 0 0 0 0 0 0 0 0 0 0 0 0 0 0 0 0 0 0 0
0 0 0 0 0 0 0 0 0 0 0 0 0 0 0 0 0 0 0 0 0 0 0 0 0 0 0 0 0 0 0 0 0 0 0 0 0 0 0 0 0 0 0 0
0 0 0 0 0 0 0 0 0 0 0 0 0 0 0 0 0 0 0 0 0 0 0 0 0 0 0 0 0 0 0 0 0 0 0 0 0 0 0 0 0 0 0 0
0 0 0 0 0 0 0 0 0 0 0 0 0 0 0 0 0 0 0 0 0 0 0 0 0 0 0 0 0 0 0 0 0 0 0 0 0 0 0 0 0 0 0 0
0 0 0 0 0 0 0 0 0 0 0 0 0 0 0 0 0 0 0 0 0 0 0 0 0 0 0 0 0 0 0 0 0 0 0 0 0 0 0 0 0 0 0 0
0 0 0 0 0 0 0 0 0 0 0 0 0 0 0 0 0 0 0 0 0 0 0 0 0 0 0 0 0 0 0 0 0 0 0 0 0 0 0 0 0 0 0 0
0 0 0 0 0 0 0 0 0 0 0 0 0 0 0 0 0 0 0 0 0 0 0 0 0 0 0 0 0 0 0 0 0 0 0 0 0 0 0 0 0 0 0 0
Wind_Speed
7 6 4 7 8 8 9 10 11 11 11 15 11 8 7 6 6 6 6 4 3 2 1 1 1 1 1 1 1 0 1 2 2 3 4 4 5 5 5 5 6 5 5 5
4 6 6 6 9 9 9 8 9 9 13 13 7 5 6 7 7 7 6 5 4 4 4 4 3 3 2 2 1 0 1 2 2 3 4 4 5 5 6 5 5 5 5 5
5 3 2 8 11 9 7 8 10 12 14 6 5 8 9 8 8 8 8 6 6 6 6 5 5 4 4 2 1 1 2 2 3 4 4 4 5 6 6 5 4 5 5 5
2 1 7 12 5 6 7 9 10 9 7 7 10 7 6 7 8 9 8 7 6 6 6 5 4 3 3 2 1 2 2 3 4 4 5 5 5 5 4 4 4 4 4 4
4 4 9 9 7 7 7 9 8 9 9 6 2 2 6 8 9 10 8 7 6 6 6 5 5 4 3 2 1 2 3 3 4 5 5 5 5 5 4 4 4 4 4 5
4 4 8 12 7 2 4 7 7 8 9 5 5 1 9 7 7 9 7 6 5 5 5 5 5 4 4 3 2 3 3 4 4 5 5 5 5 4 4 4 5 5 6 5
5 7 11 10 4 4 4 10 5 7 9 8 10 12 7 2 4 6 6 6 6 6 6 5 5 5 5 4 4 3 4 4 4 4 5 5 5 4 6 6 6 6 7 6
4 4 11 5 4 7 10 5 4 7 9 10 12 11 7 5 6 6 6 6 7 6 6 5 5 6 5 4 3 4 5 5 5 4 4 5 5 5 6 7 7 6 6 5
9 11 9 5 7 8 5 6 7 8 10 10 10 10 9 7 8 8 8 7 7 7 6 5 5 6 6 5 5 6 6 5 5 5 4 5 5 6 5 5 5 5 4 4
7 10 11 11 9 9 9 10 11 10 10 9 11 12 10 8 8 8 8 8 7 7 7 7 6 7 6 6 7 7 7 6 5 5 4 4 4 5 5 5 5 5 4 4
9 11 9 10 10 11 12 10 10 10 9 10 11 12 11 9 10 10 9 8 8 8 9 9 7 7 7 7 8 7 7 6 5 5 5 5 4 3 4 4 5 6 5 4
10 12 9 11 11 10 10 11 12 11 11 10 11 14 12 11 11 11 11 9 8 9 9 8 8 8 8 8 9 9 7 6 5 4 4 5 5 4 5 3 6 7 7 6
13 16 14 14 15 15 14 13 13 12 12 12 11 12 12 11 11 11 11 12 13 12 11 9 9 9 9 9 9 9 8 7 6 6 6 6 6 6 5 4 5 6 7 8
13 12 11 11 13 14 12 12 12 11 11 11 10 10 10 11 9 12 14 15 14 11 10 10 10 10 10 11 10 9 8 9 8 6 6 6 6 5 5 6 4 2 3 6
16 13 10 13 14 15 12 10 9 9 9 9 8 9 10 11 13 15 15 12 11 10 11 11 11 11 10 12 12 11 9 7 7 6 6 6 6 6 5 5 4 3 2 2
15 14 15 17 18 19 19 17 14 14 13 11 8 7 10 12 12 11 10 12 12 14 14 13 13 11 12 13 12 10 8 12 10 7 7 6 6 6 6 5 5 5 5 5
19 20 19 18 16 15 15 15 16 17 18 17 16 12 6 6 6 7 9 13 14 14 13 14 13 11 13 14 13 9 9 10 13 9 7 8 7 7 7 6 6 6 7 7
10 11 11 11 10 11 11 11 12 14 16 18 19 15 10 5 6 8 9 9 10 9 12 13 12 12 13 14 12 9 9 8 9 8 8 8 8 8 7 8 8 9 8 7
12 12 13 13 11 9 7 6 6 7 10 13 16 16 14 11 8 6 4 7 10 13 13 13 16 15 14 15 14 9 10 10 9 8 8 9 9 8 8 8 8 9 8 7
13 14 14 15 14 11 10 9 7 6 6 8 11 14 14 13 11 7 4 7 10 11 10 11 14 14 15 15 17 11 11 11 11 10 9 8 8 8 8 9 9 9 8 8
14 15 15 15 15 15 13 11 10 10 9 7 8 10 13 14 12 8 5 6 8 9 9 13 13 12 13 13 17 12 12 12 11 10 10 9 9 9 8 9 9 9 8 8
13 14 15 15 15 15 14 12 11 12 12 10 11 11 12 12 12 10 9 8 8 9 8 9 11 15 16 17 14 14 14 13 12 10 10 10 9 9 9 9 9 9 9 8
12 13 14 15 15 15 15 14 13 12 12 12 12 12 12 12 10 9 10 8 7 10 9 8 13 18 21 17 13 15 15 15 14 12 11 11 11 10 10 10 9 9 8 8
13 13 13 14 14 14 15 14 13 11 11 11 11 12 12 11 10 10 10 11 13 13 9 9 15 19 21 15 14 14 15 15 14 13 12 12 11 10 10 9 9 9 9 10
14 14 14 14 13 12 12 13 13 12 11 10 11 12 11 10 10 9 9 11 13 12 9 11 16 18 16 14 15 15 14 14 14 13 12 11 11 11 10 10 10 9 9 9
14 12 12 12 12 11 10 10 10 10 10 11 11 10 10 9 9 9 9 10 12 11 9 8 8 11 12 13 15 16 15 14 15 13 12 12 12 11 10 10 12 9 9 8
14 12 11 11 11 10 10 10 11 12 11 11 13 12 11 10 9 9 10 9 8 8 8 7 7 8 10 12 14 14 14 13 12 12 12 11 10 10 11 12 9 8 8 8
Wind_Direction
232 235 209 225 226 192 196 204 211 237 241 258 261 256 259 262 273 279 275 266 242 202 183 154 146 146 259 281 323 41 153 173 173 150 135 123 114 105 97 87 81 67 57 46
261 252 233 253 253 233 222 220 226 247 261 254 252 245 253 255 256 258 256 246 227 200 186 185 192 197 221 256 287 258 158 155 143 135 130 124 120 113 103 93 81 69 57 53
256 281 328 267 243 226 216 213 201 223 244 257 238 236 237 240 238 241 245 235 218 205 197 196 195 193 211 228 252 170 136 128 129 130 125 122 119 114 112 106 93 80 66 64
219 147 229 242 239 202 216 240 221 232 246 227 225 237 240 228 226 238 239 231 219 202 195 197 196 199 211 216 205 169 147 130 123 124 120 115 114 116 114 108 101 89 74 72
158 218 264 286 260 202 205 259 233 222 241 242 223 343 287 240 218 226 227 221 214 198 186 187 197 201 197 201 188 169 157 142 136 136 131 129 129 129 122 116 102 87 77 76
166 211 249 248 252 179 140 269 248 209 230 213 135 240 268 260 223 226 219 206 198 180 169 185 203 185 179 194 194 190 173 155 147 145 141 140 137 128 118 118 110 99 81 69
211 230 260 257 254 128 187 244 254 211 221 192 192 219 232 233 226 216 201 195 182 171 178 196 188 171 182 193 205 195 157 143 142 142 141 137 128 122 125 119 110 100 92 75
202 221 260 266 157 190 223 242 255 232 224 213 224 240 243 238 234 210 193 186 176 176 193 198 179 173 186 199 194 156 142 136 136 137 140 137 128 123 125 124 118 112 104 88
201 223 243 250 225 238 236 248 252 241 237 224 231 241 238 229 221 208 197 189 180 181 192 197 188 181 188 190 160 146 139 139 137 131 127 136 139 136 132 131 130 130 123 113
262 267 262 262 260 261 251 242 251 248 243 227 227 235 230 220 210 204 200 191 182 178 191 203 198 194 191 170 158 149 147 144 140 137 134 138 143 148 147 149 144 143 143 137
257 267 279 276 261 256 261 258 257 257 244 230 228 236 225 215 208 204 200 192 182 188 198 205 195 194 185 169 159 155 153 150 145 143 144 140 133 140 155 160 164 159 162 156
257 260 254 260 258 262 265 265 260 257 259 245 224 232 224 215 209 201 198 189 189 198 203 202 191 193 185 176 168 161 160 159 155 149 146 142 133 103 67 119 156 157 155 153
271 280 276 271 272 270 263 261 259 252 247 247 237 227 221 215 207 198 195 192 198 202 202 196 190 194 188 180 175 172 170 167 161 158 156 155 153 146 132 89 106 144 162 166
313 305 295 293 295 295 287 274 271 265 252 243 241 230 217 213 201 196 201 202 201 196 193 190 192 199 190 180 180 181 175 175 170 168 166 165 165 162 157 155 156 162 182 193
359 360 340 334 340 339 331 322 310 298 288 273 255 233 215 206 204 207 207 196 185 187 191 190 195 200 185 181 183 183 180 178 175 171 170 168 166 165 166 168 171 175 180 209
349 359 6 11 11 10 9 5 357 345 338 326 307 266 229 216 213 210 194 179 179 194 196 193 199 196 181 182 184 184 186 188 178 175 172 171 172 174 178 182 188 196 209 213
354 356 354 353 357 4 8 6 3 357 351 345 334 316 281 231 216 206 194 191 195 199 194 194 197 186 180 184 186 186 185 189 185 181 183 182 182 187 191 193 201 212 224 218
335 329 324 318 322 330 340 351 355 353 347 337 336 338 331 290 242 229 212 196 196 200 199 197 190 180 182 186 187 187 185 186 186 188 189 190 192 195 196 201 210 219 232 228
308 305 305 301 294 290 294 307 321 330 330 329 330 329 328 322 300 275 224 189 197 211 213 199 186 182 186 189 186 187 188 188 188 192 194 194 195 198 200 205 212 219 226 225
300 301 302 302 299 290 280 271 264 266 280 301 312 316 319 318 316 302 248 215 216 220 210 190 190 193 193 191 188 191 194 195 196 197 198 199 200 202 204 209 214 218 221 221
297 299 301 303 302 296 286 272 262 256 248 246 266 285 293 298 300 295 275 256 244 228 213 190 191 198 199 194 192 195 197 200 202 202 202 203 205 207 208 210 213 216 218 219
294 296 299 300 299 296 291 281 268 262 255 246 242 249 263 275 283 282 265 255 255 236 219 207 203 201 198 194 196 198 200 203 206 206 206 206 206 208 210 211 213 215 216 215
292 294 296 298 297 295 294 289 280 272 264 256 252 250 250 254 259 263 270 261 251 244 231 220 212 202 195 196 200 199 202 205 206 207 208 209 209 209 210 211 211 212 212 214
293 295 296 298 298 297 294 292 288 282 276 270 262 258 256 258 257 253 255 257 252 249 240 230 220 207 196 202 203 203 204 205 206 208 209 209 210 210 208 208 209 211 212 214
291 292 295 299 299 295 292 291 288 284 281 278 274 269 264 258 257 258 253 252 249 245 240 235 227 215 206 208 206 205 205 205 205 205 207 207 208 208 208 208 210 211 211 213
291 290 288 285 285 285 286 284 283 282 281 281 280 275 269 263 256 253 252 249 247 242 237 235 229 218 214 211 209 207 205 204 203 204 205 206 208 207 208 209 209 210 211 212
289 286 285 285 283 281 280 278 278 278 275 274 277 276 272 267 259 252 248 246 243 240 236 233 232 224 216 212 210 207 203 200 199 199 202 204 203 204 207 206 207 207 206 205